Tracking 35331 objects as of 14-Sep-2026
HD Live streaming from Space Station
objects crossing your sky now

STARLINK-3837

Track STARLINK-3837 now!
10-day predictions
STARLINK-3837 is classified as:


NORAD ID: 52358
Int'l Code: 2022-045AD
Launch date: April 29, 2022
Source: United States (US)
Launch site: AIR FORCE EASTERN TEST RANGE (AFETR)
Your satellite tracking list
Your tracking list is empty




NASA's NSSDC Master Catalog

Two Line Element Set (TLE):
1 52358U 22045AD  26256.49321014  .00004249  00000-0  13680-3 0  9991
2 52358  53.1589  68.1308 0000783  77.2096 282.8994 15.34401311244242
Source of the keplerian elements: AFSPC